CW0958 Weather Reports


time (UTC)temp
C
wind
direction
speed
KPH
gust
KPH
rain 1hr
cm
rain 24hr
cm
rain mn
cm
humidity
%
barometer
mb
20260507152111 25 26 1.6 8.0 0.00 0.00 0.00 25 1013.8
20260507151549 24 103 1.6 8.0 0.00 0.00 0.00 26 1013.8
20260507151035 24 178 1.6 6.4 0.00 0.00 0.00 27 1013.7
20260507150551 23 34 1.6 6.4 0.00 0.00 0.00 28 1013.7
20260507150047 23 119 3.2 6.4 0.00 0.00 0.00 28 1013.7
20260507145536 23 80 1.6 6.4 0.00 0.00 0.00 30 1013.7
20260507145037 22 44 1.6 9.7 0.00 0.00 0.00 30 1013.6
20260507144550 22 0 3.2 11.3 0.00 0.00 0.00 31 1013.7
20260507144036 22 103 3.2 11.3 0.00 0.00 0.00 29 1013.7
20260507143535 21 67 1.6 6.4 0.00 0.00 0.00 31 1013.8
20260507143044 21 79 1.6 6.4 0.00 0.00 0.00 32 1013.8
20260507142537 21 19 1.6 6.4 0.00 0.00 0.00 32 1013.8
20260507142032 20 70 1.6 8.0 0.00 0.00 0.00 33 1013.8
20260507141600 20 178 1.6 8.0 0.00 0.00 0.00 33 1013.8
20260507141033 20 30 3.2 8.0 0.00 0.00 0.00 34 1013.8
20260507140535 20 49 3.2 6.4 0.00 0.00 0.00 34 1013.8
20260507140104 20 34 1.6 4.8 0.00 0.00 0.00 35 1013.7
20260507135534 19 56 3.2 6.4 0.00 0.00 0.00 35 1013.6
20260507135033 19 83 1.6 6.4 0.00 0.00 0.00 34 1013.6
20260507134550 18 38 1.6 6.4 0.00 0.00 0.00 35 1013.5
20260507134034 18 58 3.2 6.4 0.00 0.00 0.00 34 1013.5
20260507133537 18 32 1.6 4.8 0.00 0.00 0.00 34 1013.4
20260507133048 18 0 0.0 3.2 0.00 0.00 0.00 34 1013.4
20260507132535 18 0 0.0 3.2 0.00 0.00 0.00 34 1013.4
20260507132040 18 67 0.0 3.2 0.00 0.00 0.00 34 1013.4
20260507131603 18 178 0.0 3.2 0.00 0.00 0.00 34 1013.3
20260507131037 18 161 0.0 1.6 0.00 0.00 0.00 34 1013.2
20260507130534 18 58 0.0 1.6 0.00 0.00 0.00 37 1013.2
20260507130051 18 51 0.0 3.2 0.00 0.00 0.00 36 1013.3
20260507125535 18 0 0.0 3.2 0.00 0.00 0.00 32 1013.2
20260507125034 18 0 0.0 3.2 0.00 0.00 0.00 36 1013.2
20260507124607 18 0 0.0 6.4 0.00 0.00 0.00 32 1013.1
20260507124032 18 111 0.0 11.3 0.00 0.00 0.00 31 1013.1
20260507123535 18 9 4.8 11.3 0.00 0.00 0.00 31 1013.0
20260507123057 18 22 3.2 12.9 0.00 0.00 0.00 31 1013.0
20260507122533 18 9 4.8 12.9 0.00 0.00 0.00 31 1013.0
20260507122035 18 17 6.4 12.9 0.00 0.00 0.00 32 1013.0
20260507121546 18 41 4.8 12.9 0.00 0.00 0.00 33 1012.9
20260507121032 18 46 4.8 9.7 0.00 0.00 0.00 33 1012.9
20260507120534 18 33 3.2 6.4 0.00 0.00 0.00 33 1012.8
20260507120048 18 51 1.6 6.4 0.00 0.00 0.00 32 1012.9
20260507115538 18 55 1.6 8.0 0.00 0.00 0.00 32 1013.0
20260507115034 18 22 3.2 8.0 0.00 0.00 0.00 32 1013.0
20260507114547 18 341 3.2 8.0 0.00 0.00 0.00 32 1012.9
20260507114038 18 55 3.2 9.7 0.00 0.00 0.00 32 1013.1
20260507113534 18 9 4.8 9.7 0.00 0.00 0.00 32 1013.2
20260507113053 18 347 1.6 6.4 0.00 0.00 0.00 31 1013.1
20260507112535 18 0 1.6 6.4 0.00 0.00 0.00 31 1013.2
20260507112038 18 51 1.6 6.4 0.00 0.00 0.00 31 1013.2
20260507111643 18 247 1.6 6.4 0.00 0.00 0.00 31 1013.2
20260507111551 18 247 1.6 6.4 0.00 0.00 0.00 31 1013.2
20260507111032 18 325 3.2 6.4 0.00 0.00 0.00 31 1013.2
20260507110535 19 15 3.2 6.4 0.00 0.00 0.00 31 1013.2
20260507110043 19 26 0.0 4.8 0.00 0.00 0.00 31 1013.3
20260507105532 19 46 0.0 4.8 0.00 0.00 0.00 30 1013.3
20260507105034 19 0 1.6 4.8 0.00 0.00 0.00 30 1013.5
20260507104542 19 22 0.0 3.2 0.00 0.00 0.00 29 1013.4
20260507104036 19 0 0.0 3.2 0.00 0.00 0.00 29 1013.5
20260507103537 19 26 0.0 3.2 0.00 0.00 0.00 29 1013.5
20260507103046 20 338 0.0 3.2 0.00 0.00 0.00 29 1013.5
20260507102538 20 0 0.0 3.2 0.00 0.00 0.00 29 1013.5
20260507102036 20 0 0.0 3.2 0.00 0.00 0.00 29 1013.7
20260507101553 20 83 0.0 3.2 0.00 0.00 0.00 29 1013.6
20260507101036 20 61 1.6 4.8 0.00 0.00 0.00 29 1013.7
20260507100555 20 0 0.0 4.8 0.00 0.00 0.00 29 1013.7
20260507100051 20 83 0.0 4.8 0.00 0.00 0.00 29 1013.7
20260507095535 20 0 1.6 4.8 0.00 0.00 0.00 29 1013.6
20260507095035 20 92 1.6 4.8 0.00 0.00 0.00 29 1013.7
20260507094546 20 111 1.6 4.8 0.00 0.00 0.00 29 1013.7
20260507094032 20 0 1.6 4.8 0.00 0.00 0.00 28 1013.6
20260507093535 20 56 3.2 6.4 0.00 0.00 0.00 28 1013.6
20260507093042 20 67 3.2 6.4 0.00 0.00 0.00 28 1013.6
20260507092534 20 0 1.6 4.8 0.00 0.00 0.00 27 1013.6
20260507092034 21 0 1.6 4.8 0.00 0.00 0.00 27 1013.7
20260507091539 21 44 1.6 4.8 0.00 0.00 0.00 27 1013.6
20260507091032 21 338 1.6 4.8 0.00 0.00 0.00 27 1013.5
20260507090531 21 17 0.0 3.2 0.00 0.00 0.00 26 1013.6
20260507090046 21 334 0.0 6.4 0.00 0.00 0.00 26 1013.5
20260507085536 21 38 3.2 11.3 0.00 0.00 0.00 26 1013.6
20260507085036 21 24 4.8 11.3 0.00 0.00 0.00 25 1013.6
20260507084551 21 344 3.2 11.3 0.00 0.00 0.00 24 1013.6
20260507084036 22 30 3.2 11.3 0.00 0.00 0.00 24 1013.6
20260507083535 22 273 6.4 12.9 0.00 0.00 0.00 24 1013.5
20260507083049 21 265 6.4 12.9 0.00 0.00 0.00 24 1013.6
20260507082534 21 250 6.4 12.9 0.00 0.00 0.00 24 1013.7
20260507082039 21 252 6.4 12.9 0.00 0.00 0.00 25 1013.8
20260507081544 21 275 8.0 11.3 0.00 0.00 0.00 25 1013.9
20260507081036 22 262 6.4 11.3 0.00 0.00 0.00 25 1013.9
20260507080533 22 269 4.8 11.3 0.00 0.00 0.00 25 1013.9
20260507080053 22 286 4.8 9.7 0.00 0.00 0.00 25 1013.8
20260507075536 22 282 4.8 11.3 0.00 0.00 0.00 25 1013.8
20260507075036 22 288 4.8 12.9 0.00 0.00 0.00 25 1013.8
20260507074556 22 275 8.0 12.9 0.00 0.00 0.00 24 1013.9
20260507074036 22 282 4.8 12.9 0.00 0.00 0.00 25 1013.8
20260507073536 22 250 6.4 17.7 0.00 0.00 0.00 25 1013.8
20260507073058 22 280 8.0 17.7 0.00 0.00 0.00 25 1013.8
20260507072536 22 287 6.4 17.7 0.00 0.00 0.00 25 1013.7
20260507072037 22 252 9.7 17.7 0.00 0.00 0.00 25 1013.8
20260507071600 22 250 9.7 14.5 0.00 0.00 0.00 24 1013.8
20260507071038 22 275 9.7 14.5 0.00 0.00 0.00 25 1013.8
20260507070535 22 275 8.0 14.5 0.00 0.00 0.00 24 1013.8
20260507070048 22 277 8.0 12.9 0.00 0.00 0.00 25 1013.9
20260507065537 22 257 6.4 12.9 0.00 0.00 0.00 24 1013.9
20260507065034 22 269 6.4 12.9 0.00 0.00 0.00 24 1013.9
20260507064551 22 275 8.0 14.5 0.00 0.00 0.00 24 1013.8
20260507064036 22 291 8.0 14.5 0.00 0.00 0.00 24 1013.9
20260507063536 22 284 6.4 12.9 0.00 0.00 0.00 24 1013.9
20260507063055 22 280 8.0 12.9 0.00 0.00 0.00 24 1013.8
20260507062536 22 270 9.7 14.5 0.00 0.00 0.00 24 1013.8
20260507062036 22 265 9.7 14.5 0.00 0.00 0.00 23 1013.7
20260507061544 22 296 8.0 12.9 0.00 0.00 0.00 24 1013.8
20260507061036 22 306 4.8 9.7 0.00 0.00 0.00 24 1013.8
20260507060536 23 277 3.2 9.7 0.00 0.00 0.00 24 1013.8
20260507060043 23 254 4.8 9.7 0.00 0.00 0.00 24 1013.9
20260507055538 23 261 4.8 9.7 0.00 0.00 0.00 24 1013.8
20260507055037 23 291 4.8 11.3 0.00 0.00 0.00 24 1013.8
20260507054552 23 270 6.4 11.3 0.00 0.00 0.00 24 1013.9
20260507054036 23 272 6.4 12.9 0.00 0.00 0.00 24 1013.9
20260507053536 23 284 6.4 12.9 0.00 0.00 0.00 23 1013.9
20260507053049 23 288 4.8 12.9 0.00 0.00 0.00 23 1013.8
20260507052536 23 273 4.8 11.3 0.00 0.00 0.00 23 1013.7
20260507052036 23 286 6.4 11.3 0.00 0.00 0.00 23 1013.7
20260507051546 23 292 6.4 11.3 0.00 0.00 0.00 23 1013.6
20260507051035 23 296 4.8 11.3 0.00 0.00 0.00 23 1013.6
20260507050535 24 300 4.8 12.9 0.00 0.00 0.00 23 1013.6
20260507050044 24 252 4.8 12.9 0.00 0.00 0.00 22 1013.6
20260507045536 24 261 4.8 12.9 0.00 0.00 0.00 22 1013.6
20260507045036 24 279 6.4 14.5 0.00 0.00 0.00 22 1013.5
20260507044546 24 247 8.0 14.5 0.00 0.00 0.00 22 1013.5
20260507044038 24 246 6.4 12.9 0.00 0.00 0.00 22 1013.5
20260507043533 25 242 8.0 12.9 0.00 0.00 0.00 22 1013.5
20260507043047 25 265 6.4 12.9 0.00 0.00 0.00 22 1013.5
20260507042536 25 259 8.0 14.5 0.00 0.00 0.00 22 1013.4
20260507042035 25 250 8.0 14.5 0.00 0.00 0.00 22 1013.4
20260507041545 25 252 9.7 16.1 0.00 0.00 0.00 21 1013.3
20260507041036 25 250 8.0 16.1 0.00 0.00 0.00 21 1013.2
20260507040537 25 269 6.4 14.5 0.00 0.00 0.00 21 1013.1
20260507040057 25 242 9.7 14.5 0.00 0.00 0.00 21 1013.1
20260507035536 25 272 6.4 14.5 0.00 0.00 0.00 21 1013.0
20260507035036 25 273 6.4 14.5 0.00 0.00 0.00 21 1012.9
20260507034554 25 261 8.0 14.5 0.00 0.00 0.00 21 1012.8
20260507034035 25 236 4.8 12.9 0.00 0.00 0.00 21 1012.8
20260507033535 26 261 6.4 14.5 0.00 0.00 0.00 21 1012.7
20260507033047 26 291 6.4 14.5 0.00 0.00 0.00 21 1012.6
20260507032535 26 282 6.4 12.9 0.00 0.00 0.00 21 1012.4
20260507032032 26 286 6.4 14.5 0.00 0.00 0.00 21 1012.4
20260507031550 26 270 8.0 14.5 0.00 0.00 0.00 21 1012.3
20260507031035 26 286 9.7 14.5 0.00 0.00 0.00 20 1012.2
20260507030537 26 287 8.0 14.5 0.00 0.00 0.00 20 1012.2
20260507030048 26 269 9.7 14.5 0.00 0.00 0.00 20 1012.2
20260507025537 26 268 6.4 11.3 0.00 0.00 0.00 20 1012.1
20260507025036 26 269 8.0 12.9 0.00 0.00 0.00 20 1012.1
20260507024544 27 270 8.0 12.9 0.00 0.00 0.00 19 1012.0
20260507024037 27 281 6.4 14.5 0.00 0.00 0.00 19 1011.9
20260507023535 27 272 9.7 16.1 0.00 0.00 0.00 19 1011.9
20260507023044 27 257 11.3 16.1 0.00 0.00 0.00 19 1011.9
20260507022535 27 250 9.7 16.1 0.00 0.00 0.00 19 1011.9
20260507022033 27 255 11.3 16.1 0.00 0.00 0.00 19 1011.8
20260507021546 27 254 8.0 16.1 0.00 0.00 0.00 19 1011.9
20260507021037 27 273 9.7 16.1 0.00 0.00 0.00 19 1011.8
20260507020532 27 277 11.3 16.1 0.00 0.00 0.00 18 1011.9
20260507020100 27 240 9.7 16.1 0.00 0.00 0.00 18 1011.9
20260507015536 27 247 9.7 17.7 0.00 0.00 0.00 18 1011.9
20260507015036 27 267 9.7 17.7 0.00 0.00 0.00 18 1011.8
20260507014559 27 236 12.9 19.3 0.00 0.00 0.00 18 1011.8
20260507014036 27 241 11.3 19.3 0.00 0.00 0.00 18 1011.8
20260507013538 27 238 11.3 22.5 0.00 0.00 0.00 18 1011.9
20260507013044 28 257 12.9 22.5 0.00 0.00 0.00 18 1011.9
20260507012535 28 271 14.5 19.3 0.00 0.00 0.00 18 1011.8
20260507012035 28 275 11.3 19.3 0.00 0.00 0.00 18 1011.8
20260507011601 28 243 12.9 22.5 0.00 0.00 0.00 18 1011.7
20260507011032 28 252 12.9 22.5 0.00 0.00 0.00 18 1011.8
20260507010536 28 240 12.9 19.3 0.00 0.00 0.00 18 1011.8
20260507010043 28 261 9.7 22.5 0.00 0.00 0.00 18 1011.8
20260507005533 28 273 12.9 22.5 0.00 0.00 0.00 18 1011.8
20260507005032 28 234 12.9 19.3 0.00 0.00 0.00 18 1011.8
20260507004542 28 255 8.0 20.9 0.00 0.00 0.00 18 1011.8
20260507004032 28 289 14.5 20.9 0.00 0.00 0.00 18 1011.8
20260507003535 28 225 11.3 20.9 0.00 0.00 0.00 18 1011.8
20260507003047 28 254 11.3 20.9 0.00 0.00 0.00 18 1011.8
20260507002535 28 273 12.9 22.5 0.00 0.00 0.00 18 1011.8
20260507002035 28 249 11.3 22.5 0.00 0.00 0.00 18 1011.9
20260507001617 28 259 11.3 20.9 0.00 0.00 0.00 18 1011.8
20260507001038 28 288 6.4 20.9 0.00 0.00 0.00 18 1011.9
20260507000539 28 265 9.7 20.9 0.00 0.00 0.00 18 1011.8
20260507000100 28 336 8.0 22.5 0.00 0.00 0.00 18 1011.9
20260506235536 28 262 16.1 29.0 0.00 0.00 0.00 18 1011.9
20260506235036 28 297 11.3 29.0 0.00 0.00 0.00 18 1011.9
20260506234558 28 214 3.2 25.7 0.00 0.00 0.00 18 1012.0
20260506234036 28 279 14.5 25.7 0.00 0.00 0.00 18 1012.0
20260506233537 28 271 8.0 20.9 0.00 0.00 0.00 18 1011.9
20260506233043 28 272 6.4 20.9 0.00 0.00 0.00 19 1012.0
20260506232536 28 290 11.3 22.5 0.00 0.00 0.00 18 1012.1
20260506232035 28 257 12.9 22.5 0.00 0.00 0.00 18 1012.2
20260506231542 28 270 9.7 22.5 0.00 0.00 0.00 19 1012.2
20260506231036 28 275 11.3 25.7 0.00 0.00 0.00 19 1012.2
20260506230539 28 277 11.3 25.7 0.00 0.00 0.00 19 1012.3
20260506230052 28 269 11.3 22.5 0.00 0.00 0.00 19 1012.3
20260506225535 28 223 14.5 25.7 0.00 0.00 0.00 19 1012.4
20260506225036 28 272 16.1 27.4 0.00 0.00 0.00 19 1012.4
20260506224546 28 255 16.1 29.0 0.00 0.00 0.00 19 1012.5
20260506224035 28 262 20.9 29.0 0.00 0.00 0.00 18 1012.6
20260506223535 29 259 8.0 22.5 0.00 0.00 0.00 18 1012.5
20260506223053 29 259 12.9 22.5 0.00 0.00 0.00 18 1012.7
20260506222536 29 293 3.2 12.9 0.00 0.00 0.00 20 1012.7
20260506222036 29 219 3.2 12.9 0.00 0.00 0.00 18 1012.7
20260506221544 29 58 4.8 17.7 0.00 0.00 0.00 19 1012.9
20260506221035 28 341 6.4 19.3 0.00 0.00 0.00 19 1012.8
20260506220536 28 231 11.3 25.7 0.00 0.00 0.00 18 1012.9
20260506220057 28 311 16.1 25.7 0.00 0.00 0.00 19 1013.0
20260506215537 28 304 14.5 29.0 0.00 0.00 0.00 18 1013.1
20260506215037 28 277 17.7 29.0 0.00 0.00 0.00 18 1013.2
20260506214550 29 282 3.2 19.3 0.00 0.00 0.00 18 1013.2
20260506214036 29 248 11.3 19.3 0.00 0.00 0.00 18 1013.4
20260506213536 29 186 9.7 30.6 0.00 0.00 0.00 17 1013.5
20260506213047 29 195 11.3 30.6 0.00 0.00 0.00 18 1013.6
20260506212536 28 273 8.0 16.1 0.00 0.00 0.00 18 1013.7
20260506212036 28 44 4.8 17.7 0.00 0.00 0.00 19 1013.7
20260506211547 28 213 9.7 20.9 0.00 0.00 0.00 18 1013.8
20260506211036 28 275 12.9 20.9 0.00 0.00 0.00 19 1013.9
20260506210538 28 292 4.8 14.5 0.00 0.00 0.00 19 1014.0
20260506210048 28 169 3.2 16.1 0.00 0.00 0.00 20 1014.1
20260506205535 28 67 4.8 16.1 0.00 0.00 0.00 20 1014.3
20260506205035 28 9 4.8 12.9 0.00 0.00 0.00 21 1014.4
20260506204544 27 51 4.8 14.5 0.00 0.00 0.00 21 1014.5
20260506204035 27 136 8.0 17.7 0.00 0.00 0.00 18 1014.5
20260506203535 28 207 6.4 17.7 0.00 0.00 0.00 19 1014.5
20260506203126 27 236 4.8 22.5 0.00 0.00 0.00 19 1014.6
20260506202535 27 288 11.3 25.7 0.00 0.00 0.00 19 1014.7
20260506202035 27 43 16.1 25.7 0.00 0.00 0.00 19 1014.7
20260506201546 27 296 4.8 19.3 0.00 0.00 0.00 20 1014.7
20260506201035 27 294 8.0 16.1 0.00 0.00 0.00 19 1014.7
20260506200537 27 297 4.8 20.9 0.00 0.00 0.00 20 1014.7
20260506200051 27 31 8.0 20.9 0.00 0.00 0.00 20 1014.8
20260506195536 27 309 1.6 17.7 0.00 0.00 0.00 20 1014.8
20260506195036 26 313 12.9 20.9 0.00 0.00 0.00 20 1014.9
20260506194545 27 286 4.8 24.1 0.00 0.00 0.00 20 1014.9
20260506194035 27 269 14.5 24.1 0.00 0.00 0.00 20 1015.0
20260506193534 27 286 6.4 20.9 0.00 0.00 0.00 20 1015.0
20260506193043 27 309 9.7 19.3 0.00 0.00 0.00 20 1015.1
20260506192534 27 265 4.8 20.9 0.00 0.00 0.00 20 1015.2
20260506192034 27 227 8.0 20.9 0.00 0.00 0.00 20 1015.2
20260506191545 27 309 4.8 25.7 0.00 0.00 0.00 21 1015.2
20260506191035 26 218 11.3 27.4 0.00 0.00 0.00 20 1015.3
20260506190535 27 267 16.1 27.4 0.00 0.00 0.00 20 1015.3
20260506190049 26 244 3.2 17.7 0.00 0.00 0.00 21 1015.3
20260506185534 26 332 6.4 22.5 0.00 0.00 0.00 23 1015.5
20260506185034 26 229 12.9 22.5 0.00 0.00 0.00 21 1015.6
20260506184552 26 211 9.7 19.3 0.00 0.00 0.00 22 1015.6
20260506184034 26 236 8.0 25.7 0.00 0.00 0.00 22 1015.6
20260506183534 26 225 9.7 25.7 0.00 0.00 0.00 23 1015.6
20260506183047 26 269 11.3 25.7 0.00 0.00 0.00 22 1015.7
20260506182534 26 146 8.0 19.3 0.00 0.00 0.00 22 1015.8
20260506182034 25 291 4.8 27.4 0.00 0.00 0.00 24 1015.8
20260506181545 26 262 12.9 27.4 0.00 0.00 0.00 23 1015.9
20260506181034 26 242 8.0 20.9 0.00 0.00 0.00 24 1016.0
20260506180533 26 277 3.2 19.3 0.00 0.00 0.00 26 1016.1
20260506180046 25 249 8.0 19.3 0.00 0.00 0.00 25 1016.1
20260506175533 25 325 6.4 17.7 0.00 0.00 0.00 25 1016.1
20260506175034 25 309 8.0 17.7 0.00 0.00 0.00 27 1016.1
20260506174546 25 23 4.8 20.9 0.00 0.00 0.00 27 1016.1
20260506174035 25 265 8.0 20.9 0.00 0.00 0.00 26 1016.1
20260506173536 25 0 4.8 17.7 0.00 0.00 0.00 26 1016.2
20260506173056 24 255 8.0 24.1 0.00 0.00 0.00 27 1016.2
20260506172536 24 261 12.9 24.1 0.00 0.00 0.00 27 1016.2
20260506172039 24 291 6.4 20.9 0.00 0.00 0.00 28 1016.1
20260506171550 24 279 11.3 20.9 0.00 0.00 0.00 27 1016.2
20260506171035 23 221 9.7 19.3 0.00 0.00 0.00 28 1016.1
20260506170535 23 249 4.8 17.7 0.00 0.00 0.00 29 1016.2
20260506170051 23 259 8.0 17.7 0.00 0.00 0.00 30 1016.3
20260506165537 23 271 6.4 17.7 0.00 0.00 0.00 30 1016.1
20260506165036 22 267 6.4 17.7 0.00 0.00 0.00 30 1016.1
20260506164548 22 249 9.7 19.3 0.00 0.00 0.00 31 1016.2
20260506164033 22 225 14.5 19.3 0.00 0.00 0.00 31 1016.1
20260506163536 22 249 6.4 17.7 0.00 0.00 0.00 32 1016.1
20260506163057 21 272 11.3 16.1 0.00 0.00 0.00 32 1016.1
20260506162536 21 275 11.3 16.1 0.00 0.00 0.00 33 1016.1
20260506162037 21 289 11.3 16.1 0.00 0.00 0.00 33 1015.9
20260506161544 21 270 8.0 16.1 0.00 0.00 0.00 33 1016.0
20260506161039 21 232 9.7 16.1 0.00 0.00 0.00 34 1015.9
20260506160536 20 284 8.0 16.1 0.00 0.00 0.00 34 1016.0
20260506160043 20 286 8.0 17.7 0.00 0.00 0.00 34 1016.1
20260506155536 20 277 6.4 17.7 0.00 0.00 0.00 35 1016.1
20260506155038 20 281 8.0 16.1 0.00 0.00 0.00 34 1016.1
20260506154548 20 236 9.7 16.1 0.00 0.00 0.00 35 1016.0
20260506154039 20 294 9.7 17.7 0.00 0.00 0.00 36 1016.0
20260506153535 19 265 9.7 17.7 0.00 0.00 0.00 36 1016.1
20260506153050 19 267 12.9 17.7 0.00 0.00 0.00 37 1016.1
20260506152537 18 281 11.3 19.3 0.00 0.00 0.00 37 1016.1